FALCON 9 // GPS III-9

导读

GPS III-9是美国太空军第三代全球定位系统的第九颗卫星,于2026年1月28日由SpaceX的猎鹰9号(Falcon 9)火箭从佛罗里达州卡纳维拉尔角太空军基地发射入轨,部署于中地球轨道。该卫星定位精度提升三倍,信号强度增强八倍,配备M码技术,抗干扰能力显著增强,使美国在轨GPS卫星总数达到32颗,进一步强化了全球定位、导航与授时服务能力。

基本信息
目录编号:
67588
目录名称:
NAVSTAR 85 (USA 581)
国际标识:
2026-017A
轨道中心:
EARTH
卫星名称:
FALCON 9 // GPS III-9
卫星全名:
FALCON 9 // GPS III-9
卫星状态:
在轨 (已飞行220 天)
发射日期:
2026-01-28 UTC
国别 :
美国 (US)
星等 :
--
轨道信息
数据来源 国际轨道数据 AOE轨道数据
星历时间 2026-09-03T07:21:23+0800
2天前
查看轨道信息
2026-09-01T04:00:00+0800
4天前
查看轨道信息
半长轴 26559.863km 26559.74km
偏心率 0.0020767 0.0020773
轨道倾角 55.142° 55.140°
近地点辐角 262.677° 262.303°
升交点赤经 85.634° 85.719°
平近点角 97.155° 352.406°
近地点 20126.569km 20126.43km
远地点 20236.883km 20236.776km
周期 717.957分钟 717.952分钟
每日圈数 2.005691 2.005705
详细信息
使用方式:
暂无
2D轨道图
3D轨道图
轨道高度分析图
轨道倾角分析图
轨道综合分析图
查看轨道综合分析图